Location: Москва
(55.7504°N, 37.6175°E)
Time: 14:06:41
(UTC+03:00)

ISS - Visible Passes

Search period start: 14 May 2025 00:00
Search period end: 24 May 2025 00:00
Orbit: 416 x 419 km, 51.6° (Epoch: 14 May)

Date Brightness Start Highest point End Pass type
(mag) Time Alt. Az. Time Alt. Az. Time Alt. Az.
14 May -1.3 00:55:27 10° WSW 00:55:46 12° WSW 00:55:46 12° WSW visible
14 May -3.3 22:30:45 10° WSW 22:33:56 41° S 22:36:32 14° ESE visible
15 May -2.4 00:07:25 10° W 00:09:27 23° SW 00:09:27 23° SW visible
15 May -3.3 21:42:54 10° WSW 21:46:05 40° S 21:49:16 10° ESE visible
15 May -2.9 23:19:27 10° W 23:22:28 31° SSW 23:23:05 29° S visible
16 May -3.1 22:31:30 10° W 22:34:37 36° S 22:36:41 18° SE visible
17 May -1.6 00:08:34 10° WSW 00:09:36 14° SW 00:09:36 14° SW visible
17 May -3.2 21:43:33 10° WSW 21:46:44 39° S 21:49:54 10° ESE visible
17 May -2.3 23:20:22 10° WSW 23:23:01 21° SSW 23:23:12 21° SSW visible
18 May -2.6 22:32:17 10° W 22:35:10 26° SSW 22:36:47 18° SSE visible
19 May -2.8 21:44:15 10° W 21:47:17 32° SSW 21:50:19 10° SE visible
19 May -1.6 23:21:47 10° WSW 23:23:17 13° SW 23:23:17 13° SW visible
20 May -1.9 22:33:17 10° WSW 22:35:32 17° SSW 22:36:52 14° S visible
21 May -2.1 21:45:02 10° WSW 21:47:41 22° SSW 21:50:20 10° SSE visible
23 May -1.4 21:46:15 10° WSW 21:47:54 13° SW 21:49:32 10° S visible
